| time (UTC) | temp F | wind direction | speed knots | gust knots | rain 1hr in | rain 24hr in | rain mn in | humidity % | barometer mb |
| 20260502130704 | 51 | 21 | 0.0 | 1.7 | 0.00 | 0.04 | 0.04 | 90 | 1011.2 |
| 20260502130204 | 50 | 21 | 0.0 | 1.7 | 0.00 | 0.04 | 0.04 | 91 | 1011.2 |
| 20260502123704 | 49 | 85 | 0.9 | 0.9 | 0.02 | 0.04 | 0.04 | 93 | 1011.2 |
| 20260502123204 | 49 | 48 | 0.9 | 1.7 | 0.02 | 0.04 | 0.04 | 93 | 1011.4 |
| 20260502122204 | 49 | 50 | 0.9 | 1.7 | 0.02 | 0.04 | 0.04 | 93 | 1011.4 |
| 20260502121704 | 49 | 78 | 0.0 | 1.7 | 0.02 | 0.04 | 0.04 | 93 | 1011.5 |
| 20260502121204 | 49 | 89 | 0.0 | 1.7 | 0.02 | 0.04 | 0.04 | 93 | 1011.8 |
| 20260502120204 | 48 | 81 | 0.0 | 0.9 | 0.02 | 0.04 | 0.04 | 93 | 1011.8 |
| 20260502115204 | 48 | 65 | 0.0 | 1.7 | 0.02 | 0.04 | 0.04 | 93 | 1011.9 |
| 20260502114204 | 48 | 51 | 0.0 | 1.7 | 0.02 | 0.04 | 0.04 | 93 | 1011.9 |
| 20260502113704 | 48 | 51 | 0.0 | 0.9 | 0.00 | 0.02 | 0.02 | 93 | 1011.9 |
| 20260502113203 | 48 | 51 | 0.0 | 0.0 | 0.00 | 0.02 | 0.02 | 92 | 1012.0 |
| 20260502112704 | 48 | 51 | 0.0 | 1.7 | 0.00 | 0.02 | 0.02 | 92 | 1011.9 |
| 20260502112204 | 49 | 51 | 0.0 | 1.7 | 0.00 | 0.02 | 0.02 | 92 | 1011.9 |
| 20260502111703 | 49 | 51 | 0.0 | 1.7 | 0.00 | 0.02 | 0.02 | 92 | 1011.8 |
| 20260502111204 | 49 | 354 | 0.9 | 0.9 | 0.00 | 0.02 | 0.02 | 92 | 1011.9 |
| 20260502110704 | 49 | 304 | 0.0 | 0.0 | 0.00 | 0.02 | 0.02 | 92 | 1012.1 |
| 20260502105704 | 49 | 307 | 0.0 | 1.7 | 0.00 | 0.02 | 0.02 | 92 | 1011.7 |
| 20260502105204 | 49 | 307 | 0.0 | 0.0 | 0.00 | 0.02 | 0.02 | 92 | 1011.8 |
| 20260502104704 | 49 | 307 | 0.0 | 1.7 | 0.00 | 0.02 | 0.02 | 92 | 1011.7 |
| 20260502104204 | 49 | 263 | 0.0 | 0.0 | 0.01 | 0.02 | 0.02 | 91 | 1011.8 |
| 20260502103704 | 49 | 263 | 0.0 | 0.9 | 0.01 | 0.02 | 0.02 | 91 | 1011.9 |
| 20260502103205 | 49 | 205 | 0.0 | 1.7 | 0.01 | 0.02 | 0.02 | 91 | 1011.7 |
| 20260502102704 | 49 | 205 | 0.0 | 0.0 | 0.01 | 0.02 | 0.02 | 91 | 1011.5 |
| 20260502102204 | 49 | 205 | 0.0 | 0.0 | 0.01 | 0.02 | 0.02 | 91 | 1011.2 |
| 20260502101703 | 49 | 205 | 0.0 | 0.0 | 0.01 | 0.02 | 0.02 | 90 | 1011.2 |
| 20260502101204 | 49 | 205 | 0.0 | 0.0 | 0.01 | 0.02 | 0.02 | 90 | 1011.2 |
| 20260502100704 | 49 | 205 | 0.0 | 0.0 | 0.01 | 0.02 | 0.02 | 90 | 1011.3 |
| 20260502100204 | 49 | 205 | 0.0 | 0.0 | 0.02 | 0.02 | 0.02 | 90 | 1011.3 |
| 20260502091204 | 49 | 205 | 0.0 | 1.7 | 0.01 | 0.01 | 0.01 | 86 | 1011.1 |
| 20260502090205 | 49 | 205 | 0.0 | 0.0 | 0.00 | 0.00 | 0.00 | 86 | 1010.9 |
| 20260502071203 | 50 | 205 | 0.9 | 1.7 | 0.00 | 0.00 | 0.00 | 80 | 1011.1 |
| 20260502070704 | 50 | 111 | 0.0 | 1.7 | 0.00 | 0.00 | 0.00 | 80 | 1010.5 |
| 20260502070204 | 50 | 111 | 0.0 | 0.9 | 0.00 | 0.00 | 0.00 | 79 | 1010.4 |
| 20260502065704 | 50 | 159 | 0.9 | 1.7 | 0.00 | 0.00 | 0.00 | 79 | 1010.8 |
| 20260502064704 | 50 | 189 | 0.9 | 0.9 | 0.00 | 0.00 | 0.00 | 78 | 1011.1 |
| 20260502064204 | 50 | 223 | 0.9 | 1.7 | 0.00 | 0.00 | 0.00 | 78 | 1011.0 |
| 20260502063704 | 50 | 202 | 0.9 | 2.6 | 0.00 | 0.00 | 0.00 | 78 | 1011.1 |
| 20260502063204 | 50 | 194 | 0.0 | 1.7 | 0.00 | 0.00 | 0.00 | 77 | 1011.1 |
| 20260502062703 | 51 | 190 | 0.9 | 2.6 | 0.00 | 0.00 | 0.00 | 77 | 1011.2 |
| 20260502062204 | 51 | 209 | 0.9 | 2.6 | 0.00 | 0.00 | 0.00 | 76 | 1011.1 |
| 20260502061704 | 51 | 176 | 0.0 | 1.7 | 0.00 | 0.00 | 0.00 | 76 | 1010.9 |
| 20260502061204 | 51 | 227 | 0.9 | 2.6 | 0.00 | 0.00 | 0.00 | 75 | 1011.1 |
| 20260502060704 | 51 | 254 | 0.9 | 1.7 | 0.00 | 0.00 | 0.00 | 75 | 1011.3 |
| 20260502060204 | 51 | 243 | 0.9 | 2.6 | 0.00 | 0.00 | 0.00 | 75 | 1011.4 |
| 20260502055704 | 51 | 230 | 0.0 | 2.6 | 0.00 | 0.00 | 0.00 | 74 | 1011.3 |
| 20260502055204 | 51 | 210 | 0.9 | 2.6 | 0.00 | 0.00 | 0.00 | 74 | 1011.4 |
| 20260502054704 | 51 | 172 | 0.9 | 1.7 | 0.00 | 0.00 | 0.00 | 74 | 1010.9 |
| 20260502054204 | 51 | 204 | 0.9 | 1.7 | 0.00 | 0.00 | 0.00 | 74 | 1011.1 |
| 20260502053704 | 51 | 160 | 0.0 | 1.7 | 0.00 | 0.00 | 0.00 | 73 | 1011.1 |
| 20260502053204 | 52 | 175 | 0.0 | 1.7 | 0.00 | 0.00 | 0.00 | 73 | 1011.2 |
| 20260502052704 | 52 | 181 | 0.9 | 1.7 | 0.00 | 0.00 | 0.00 | 73 | 1011.1 |
| 20260502052204 | 52 | 220 | 0.0 | 1.7 | 0.00 | 0.00 | 0.00 | 73 | 1011.2 |
| 20260502051204 | 52 | 167 | 0.0 | 0.9 | 0.00 | 0.00 | 0.00 | 72 | 1011.1 |
| 20260502050704 | 52 | 167 | 0.0 | 0.9 | 0.00 | 0.00 | 0.00 | 72 | 1011.2 |
| 20260502045704 | 52 | 167 | 0.0 | 1.7 | 0.00 | 0.00 | 0.00 | 72 | 1011.3 |
| 20260502045204 | 52 | 166 | 0.9 | 1.7 | 0.00 | 0.00 | 0.00 | 72 | 1011.4 |
| 20260502044704 | 52 | 173 | 0.9 | 1.7 | 0.00 | 0.00 | 0.00 | 72 | 1011.3 |
| 20260502043203 | 52 | 206 | 0.9 | 2.6 | 0.00 | 0.00 | 0.00 | 71 | 1011.4 |
| 20260502042704 | 52 | 154 | 0.0 | 1.7 | 0.00 | 0.00 | 0.00 | 71 | 1011.4 |
| 20260502042203 | 53 | 154 | 0.0 | 0.9 | 0.00 | 0.00 | 0.00 | 71 | 1011.2 |
| 20260502041704 | 53 | 154 | 0.0 | 1.7 | 0.00 | 0.00 | 0.00 | 71 | 1011.2 |
| 20260502041205 | 53 | 154 | 0.0 | 0.9 | 0.00 | 0.00 | 0.00 | 71 | 1011.3 |
| 20260502040707 | 53 | 165 | 0.0 | 1.7 | 0.00 | 0.00 | 0.00 | 71 | 1011.3 |
| 20260502040204 | 53 | 182 | 0.0 | 1.7 | 0.00 | 0.00 | 0.00 | 71 | 1011.4 |
| 20260502035704 | 53 | 181 | 0.0 | 1.7 | 0.00 | 0.00 | 0.00 | 71 | 1011.2 |
| 20260502035204 | 53 | 181 | 0.0 | 1.7 | 0.00 | 0.00 | 0.00 | 70 | 1011.2 |
| 20260502034704 | 53 | 186 | 0.9 | 1.7 | 0.00 | 0.00 | 0.00 | 71 | 1011.3 |
| 20260502033704 | 53 | 148 | 0.9 | 1.7 | 0.00 | 0.00 | 0.00 | 70 | 1011.4 |
| 20260502033204 | 53 | 152 | 0.0 | 0.9 | 0.00 | 0.00 | 0.00 | 70 | 1011.4 |
| 20260502032704 | 53 | 153 | 0.0 | 1.7 | 0.00 | 0.00 | 0.00 | 70 | 1011.4 |
| 20260502032204 | 53 | 153 | 0.0 | 1.7 | 0.00 | 0.00 | 0.00 | 70 | 1011.5 |
| 20260502031704 | 53 | 208 | 0.9 | 2.6 | 0.00 | 0.00 | 0.00 | 70 | 1011.5 |
| 20260502030704 | 53 | 234 | 0.0 | 1.7 | 0.00 | 0.00 | 0.00 | 69 | 1011.4 |
| 20260502030203 | 53 | 234 | 0.0 | 1.7 | 0.00 | 0.00 | 0.00 | 69 | 1011.5 |
| 20260502025704 | 53 | 234 | 0.0 | 1.7 | 0.00 | 0.00 | 0.00 | 69 | 1011.5 |
| 20260502025204 | 53 | 225 | 0.0 | 1.7 | 0.00 | 0.00 | 0.00 | 68 | 1011.4 |
| 20260502024704 | 53 | 212 | 0.0 | 0.0 | 0.00 | 0.00 | 0.00 | 68 | 1011.5 |
| 20260502024204 | 53 | 212 | 0.0 | 1.7 | 0.00 | 0.00 | 0.00 | 68 | 1011.5 |
| 20260502023204 | 54 | 216 | 0.0 | 1.7 | 0.00 | 0.00 | 0.00 | 67 | 1011.5 |
| 20260502022704 | 54 | 147 | 0.0 | 0.9 | 0.00 | 0.00 | 0.00 | 67 | 1011.5 |
| 20260502022205 | 54 | 147 | 0.0 | 0.9 | 0.00 | 0.00 | 0.00 | 67 | 1011.4 |
| 20260502021703 | 54 | 150 | 0.9 | 0.9 | 0.00 | 0.00 | 0.00 | 67 | 1011.4 |
| 20260502021204 | 54 | 195 | 0.0 | 1.7 | 0.00 | 0.00 | 0.00 | 67 | 1011.4 |
| 20260502020704 | 54 | 155 | 0.9 | 1.7 | 0.00 | 0.00 | 0.00 | 67 | 1011.4 |
| 20260502020204 | 54 | 211 | 1.7 | 4.3 | 0.00 | 0.00 | 0.00 | 66 | 1011.5 |
| 20260502015704 | 54 | 195 | 0.9 | 2.6 | 0.00 | 0.00 | 0.00 | 66 | 1011.5 |
| 20260502015204 | 54 | 200 | 0.9 | 1.7 | 0.00 | 0.00 | 0.00 | 66 | 1011.5 |
| 20260502014704 | 54 | 199 | 0.0 | 1.7 | 0.00 | 0.00 | 0.00 | 66 | 1011.5 |
| 20260502014203 | 54 | 166 | 0.9 | 2.6 | 0.00 | 0.00 | 0.00 | 65 | 1011.3 |
| 20260502013204 | 55 | 173 | 0.9 | 1.7 | 0.00 | 0.00 | 0.00 | 64 | 1011.3 |
| 20260502012703 | 55 | 157 | 1.7 | 2.6 | 0.00 | 0.00 | 0.00 | 64 | 1011.2 |
| 20260502012204 | 55 | 170 | 0.9 | 2.6 | 0.00 | 0.00 | 0.00 | 64 | 1011.2 |
| 20260502011704 | 55 | 211 | 0.9 | 2.6 | 0.00 | 0.00 | 0.00 | 63 | 1011.2 |
| 20260502011204 | 55 | 185 | 0.9 | 2.6 | 0.00 | 0.00 | 0.00 | 63 | 1011.1 |
| 20260502010704 | 55 | 150 | 1.7 | 2.6 | 0.00 | 0.00 | 0.00 | 62 | 1011.0 |
| 20260502010203 | 55 | 171 | 0.9 | 2.6 | 0.00 | 0.00 | 0.00 | 62 | 1011.0 |
| 20260502005704 | 55 | 173 | 1.7 | 2.6 | 0.00 | 0.00 | 0.00 | 61 | 1011.0 |
| 20260502005204 | 56 | 190 | 1.7 | 4.3 | 0.00 | 0.00 | 0.00 | 61 | 1010.9 |
| 20260502004704 | 56 | 195 | 1.7 | 2.6 | 0.00 | 0.00 | 0.00 | 59 | 1010.9 |
| 20260502004204 | 56 | 160 | 1.7 | 2.6 | 0.00 | 0.00 | 0.00 | 58 | 1010.8 |
| 20260502003704 | 57 | 190 | 1.7 | 2.6 | 0.00 | 0.00 | 0.00 | 56 | 1010.7 |
| 20260502003204 | 57 | 164 | 1.7 | 2.6 | 0.00 | 0.00 | 0.00 | 54 | 1010.6 |
| 20260502002704 | 57 | 162 | 1.7 | 5.2 | 0.00 | 0.00 | 0.00 | 52 | 1010.5 |
| 20260502002204 | 57 | 216 | 2.6 | 2.6 | 0.00 | 0.00 | 0.00 | 51 | 1010.4 |
| 20260502001704 | 58 | 186 | 2.6 | 6.1 | 0.00 | 0.00 | 0.00 | 47 | 1010.3 |
| 20260502001203 | 58 | 182 | 1.7 | 2.6 | 0.00 | 0.00 | 0.00 | 46 | 1010.2 |
| 20260502000704 | 58 | 155 | 0.9 | 1.7 | 0.00 | 0.00 | 0.00 | 46 | 1010.2 |
| 20260502000204 | 59 | 155 | 0.0 | 0.9 | 0.00 | 0.00 | 0.00 | 45 | 1010.0 |
| 20260501235703 | 59 | 158 | 0.0 | 0.9 | 0.00 | 0.00 | 0.00 | 45 | 1010.0 |
| 20260501235204 | 59 | 159 | 0.9 | 0.9 | 0.00 | 0.00 | 0.00 | 44 | 1009.9 |
| 20260501234703 | 59 | 157 | 0.9 | 1.7 | 0.00 | 0.00 | 0.00 | 44 | 1009.8 |
| 20260501234204 | 60 | 167 | 0.0 | 1.7 | 0.00 | 0.00 | 0.00 | 43 | 1009.8 |
| 20260501233204 | 60 | 159 | 1.7 | 2.6 | 0.00 | 0.00 | 0.00 | 42 | 1009.6 |
| 20260501232704 | 61 | 204 | 0.9 | 2.6 | 0.00 | 0.00 | 0.00 | 42 | 1009.5 |
| 20260501232204 | 61 | 157 | 0.9 | 2.6 | 0.00 | 0.00 | 0.00 | 42 | 1009.5 |
| 20260501231704 | 62 | 213 | 0.9 | 2.6 | 0.00 | 0.00 | 0.00 | 41 | 1009.4 |
| 20260501231204 | 62 | 158 | 1.7 | 2.6 | 0.00 | 0.00 | 0.00 | 39 | 1009.3 |
| 20260501230703 | 62 | 228 | 0.9 | 2.6 | 0.00 | 0.00 | 0.00 | 38 | 1009.4 |
| 20260501225704 | 63 | 219 | 0.0 | 1.7 | 0.00 | 0.00 | 0.00 | 37 | 1009.2 |
| 20260501225204 | 63 | 208 | 0.9 | 1.7 | 0.00 | 0.00 | 0.00 | 36 | 1009.2 |
| 20260501224703 | 64 | 119 | 1.7 | 2.6 | 0.00 | 0.00 | 0.00 | 36 | 1009.2 |
| 20260501224203 | 64 | 181 | 0.9 | 2.6 | 0.00 | 0.00 | 0.00 | 36 | 1009.3 |
| 20260501223704 | 65 | 246 | 1.7 | 2.6 | 0.00 | 0.00 | 0.00 | 35 | 1009.1 |
| 20260501223204 | 65 | 314 | 0.9 | 2.6 | 0.00 | 0.00 | 0.00 | 36 | 1009.0 |
| 20260501222704 | 65 | 315 | 0.9 | 2.6 | 0.00 | 0.00 | 0.00 | 34 | 1009.0 |
| 20260501222203 | 65 | 281 | 0.9 | 1.7 | 0.00 | 0.00 | 0.00 | 34 | 1009.0 |
| 20260501221704 | 65 | 274 | 0.0 | 1.7 | 0.00 | 0.00 | 0.00 | 35 | 1009.1 |
| 20260501221203 | 65 | 265 | 0.9 | 2.6 | 0.00 | 0.00 | 0.00 | 34 | 1009.1 |
| 20260501220203 | 65 | 251 | 0.9 | 2.6 | 0.00 | 0.00 | 0.00 | 35 | 1009.0 |
| 20260501215704 | 65 | 300 | 2.6 | 5.2 | 0.00 | 0.00 | 0.00 | 34 | 1009.0 |
| 20260501215204 | 66 | 285 | 1.7 | 5.2 | 0.00 | 0.00 | 0.00 | 35 | 1009.1 |
| 20260501214704 | 65 | 326 | 0.9 | 2.6 | 0.00 | 0.00 | 0.00 | 37 | 1009.1 |
| 20260501214204 | 65 | 242 | 1.7 | 2.6 | 0.00 | 0.00 | 0.00 | 36 | 1009.1 |
| 20260501213703 | 65 | 228 | 0.9 | 1.7 | 0.00 | 0.00 | 0.00 | 36 | 1009.2 |
| 20260501213204 | 65 | 322 | 0.9 | 2.6 | 0.00 | 0.00 | 0.00 | 35 | 1009.2 |
| 20260501212704 | 65 | 348 | 1.7 | 4.3 | 0.00 | 0.00 | 0.00 | 36 | 1009.3 |
| 20260501211704 | 65 | 305 | 3.5 | 7.0 | 0.00 | 0.00 | 0.00 | 35 | 1009.2 |
| 20260501211204 | 65 | 347 | 0.9 | 1.7 | 0.00 | 0.00 | 0.00 | 34 | 1009.1 |
| 20260501205704 | 66 | 293 | 2.6 | 7.8 | 0.00 | 0.00 | 0.00 | 34 | 1009.2 |
| 20260501205204 | 66 | 303 | 1.7 | 5.2 | 0.00 | 0.00 | 0.00 | 37 | 1009.2 |
| 20260501204204 | 66 | 183 | 0.9 | 2.6 | 0.00 | 0.00 | 0.00 | 35 | 1008.9 |
| 20260501203703 | 65 | 312 | 0.0 | 5.2 | 0.00 | 0.00 | 0.00 | 35 | 1009.0 |
| 20260501203204 | 65 | 209 | 1.7 | 10.4 | 0.00 | 0.00 | 0.00 | 36 | 1009.1 |
| 20260501202704 | 65 | 247 | 3.5 | 10.4 | 0.00 | 0.00 | 0.00 | 35 | 1009.1 |
| 20260501202204 | 65 | 303 | 1.7 | 5.2 | 0.00 | 0.00 | 0.00 | 36 | 1009.1 |
| 20260501201703 | 65 | 12 | 0.0 | 2.6 | 0.00 | 0.00 | 0.00 | 37 | 1009.2 |
| 20260501201204 | 65 | 10 | 0.9 | 5.2 | 0.00 | 0.00 | 0.00 | 40 | 1009.0 |
| 20260501200704 | 65 | 21 | 0.9 | 2.6 | 0.00 | 0.00 | 0.00 | 37 | 1009.0 |
| 20260501200204 | 65 | 28 | 0.9 | 2.6 | 0.00 | 0.00 | 0.00 | 36 | 1009.2 |
| 20260501195704 | 65 | 293 | 1.7 | 6.1 | 0.00 | 0.00 | 0.00 | 35 | 1009.3 |
| 20260501195204 | 65 | 336 | 1.7 | 5.2 | 0.00 | 0.00 | 0.00 | 34 | 1009.3 |
| 20260501194704 | 65 | 258 | 2.6 | 7.8 | 0.00 | 0.00 | 0.00 | 35 | 1009.3 |
| 20260501194204 | 65 | 337 | 0.0 | 2.6 | 0.00 | 0.00 | 0.00 | 35 | 1009.2 |
| 20260501193704 | 65 | 340 | 0.9 | 2.6 | 0.00 | 0.00 | 0.00 | 41 | 1009.3 |
| 20260501193204 | 64 | 323 | 1.7 | 6.1 | 0.00 | 0.00 | 0.00 | 37 | 1009.3 |
| 20260501192204 | 64 | 290 | 0.9 | 2.6 | 0.00 | 0.00 | 0.00 | 40 | 1009.3 |
| 20260501191704 | 64 | 300 | 1.7 | 4.3 | 0.00 | 0.00 | 0.00 | 38 | 1009.3 |
| 20260501191204 | 63 | 34 | 0.9 | 6.1 | 0.00 | 0.00 | 0.00 | 36 | 1009.5 |
| 20260501190704 | 64 | 305 | 1.7 | 6.1 | 0.00 | 0.00 | 0.00 | 36 | 1009.8 |
| 20260501190204 | 64 | 339 | 1.7 | 6.1 | 0.00 | 0.00 | 0.00 | 39 | 1009.8 |
| 20260501185704 | 63 | 260 | 0.9 | 7.0 | 0.00 | 0.00 | 0.00 | 36 | 1009.7 |
| 20260501185204 | 63 | 258 | 1.7 | 5.2 | 0.00 | 0.00 | 0.00 | 37 | 1009.9 |
| 20260501184704 | 63 | 289 | 2.6 | 7.0 | 0.00 | 0.00 | 0.00 | 36 | 1010.0 |
| 20260501184204 | 63 | 283 | 1.7 | 7.0 | 0.00 | 0.00 | 0.00 | 36 | 1009.9 |
| 20260501183704 | 64 | 351 | 4.3 | 8.7 | 0.00 | 0.00 | 0.00 | 36 | 1009.9 |
| 20260501183204 | 64 | 244 | 0.9 | 2.6 | 0.00 | 0.00 | 0.00 | 39 | 1009.9 |
| 20260501182704 | 63 | 4 | 0.9 | 2.6 | 0.00 | 0.00 | 0.00 | 42 | 1009.9 |
| 20260501182204 | 63 | 92 | 0.9 | 2.6 | 0.00 | 0.00 | 0.00 | 40 | 1010.0 |
| 20260501181703 | 63 | 48 | 2.6 | 5.2 | 0.00 | 0.00 | 0.00 | 38 | 1009.9 |
| 20260501181204 | 63 | 35 | 0.9 | 5.2 | 0.00 | 0.00 | 0.00 | 40 | 1010.0 |
| 20260501180704 | 63 | 25 | 0.9 | 4.3 | 0.00 | 0.00 | 0.00 | 41 | 1010.1 |
| 20260501180204 | 63 | 313 | 2.6 | 5.2 | 0.00 | 0.00 | 0.00 | 37 | 1010.1 |
| 20260501175704 | 63 | 312 | 2.6 | 7.8 | 0.00 | 0.00 | 0.00 | 39 | 1010.2 |
| 20260501175203 | 62 | 245 | 1.7 | 5.2 | 0.00 | 0.00 | 0.00 | 38 | 1010.1 |
| 20260501174204 | 62 | 323 | 0.9 | 7.8 | 0.00 | 0.00 | 0.00 | 38 | 1010.1 |
| 20260501173704 | 62 | 313 | 1.7 | 7.0 | 0.00 | 0.00 | 0.00 | 37 | 1010.2 |
| 20260501173204 | 61 | 258 | 2.6 | 5.2 | 0.00 | 0.00 | 0.00 | 37 | 1010.2 |
| 20260501172204 | 61 | 260 | 3.5 | 8.7 | 0.00 | 0.00 | 0.00 | 39 | 1010.2 |
| 20260501171704 | 61 | 325 | 4.3 | 8.7 | 0.00 | 0.00 | 0.00 | 37 | 1010.3 |
| 20260501170704 | 61 | 305 | 4.3 | 7.8 | 0.00 | 0.00 | 0.00 | 41 | 1010.4 |
| 20260501170204 | 61 | 315 | 1.7 | 2.6 | 0.00 | 0.00 | 0.00 | 41 | 1010.3 |
| 20260501165704 | 61 | 226 | 1.7 | 5.2 | 0.00 | 0.00 | 0.00 | 42 | 1010.3 |
| 20260501165204 | 61 | 254 | 0.9 | 2.6 | 0.00 | 0.00 | 0.00 | 45 | 1010.4 |
| 20260501164704 | 61 | 321 | 1.7 | 7.0 | 0.00 | 0.00 | 0.00 | 48 | 1010.4 |
| 20260501163704 | 60 | 236 | 0.9 | 2.6 | 0.00 | 0.00 | 0.00 | 43 | 1010.5 |
| 20260501163203 | 60 | 263 | 2.6 | 5.2 | 0.00 | 0.00 | 0.00 | 48 | 1010.7 |
| 20260501162703 | 59 | 268 | 3.5 | 7.8 | 0.00 | 0.00 | 0.00 | 45 | 1010.7 |
| 20260501162204 | 59 | 322 | 3.5 | 8.7 | 0.00 | 0.00 | 0.00 | 44 | 1010.7 |
| 20260501161704 | 59 | 93 | 0.9 | 7.8 | 0.00 | 0.00 | 0.00 | 45 | 1010.7 |
| 20260501160204 | 58 | 271 | 2.6 | 7.8 | 0.00 | 0.00 | 0.00 | 50 | 1010.8 |
| 20260501155704 | 58 | 335 | 2.6 | 7.0 | 0.00 | 0.00 | 0.00 | 48 | 1010.9 |
| 20260501154704 | 58 | 291 | 1.7 | 2.6 | 0.00 | 0.00 | 0.00 | 48 | 1011.0 |
| 20260501154204 | 58 | 257 | 0.9 | 2.6 | 0.00 | 0.00 | 0.00 | 47 | 1011.0 |
| 20260501153704 | 58 | 33 | 1.7 | 2.6 | 0.00 | 0.00 | 0.00 | 52 | 1011.1 |
| 20260501153204 | 57 | 348 | 2.6 | 7.0 | 0.00 | 0.00 | 0.00 | 49 | 1011.1 |
| 20260501152704 | 57 | 42 | 0.9 | 2.6 | 0.00 | 0.00 | 0.00 | 53 | 1011.1 |
| 20260501152204 | 57 | 221 | 0.9 | 4.3 | 0.00 | 0.00 | 0.00 | 52 | 1011.0 |
| 20260501151704 | 56 | 231 | 0.9 | 5.2 | 0.00 | 0.00 | 0.00 | 53 | 1011.1 |
| 20260501151203 | 56 | 28 | 0.9 | 6.1 | 0.00 | 0.00 | 0.00 | 52 | 1011.1 |
| 20260501150204 | 55 | 309 | 0.9 | 2.6 | 0.00 | 0.00 | 0.00 | 55 | 1011.3 |
| 20260501145704 | 54 | 331 | 1.7 | 6.1 | 0.00 | 0.00 | 0.00 | 54 | 1011.3 |
| 20260501145204 | 54 | 350 | 1.7 | 6.1 | 0.00 | 0.00 | 0.00 | 55 | 1011.3 |
| 20260501144204 | 53 | 17 | 1.7 | 6.1 | 0.00 | 0.00 | 0.00 | 55 | 1011.3 |
| 20260501143704 | 53 | 261 | 1.7 | 4.3 | 0.00 | 0.00 | 0.00 | 57 | 1011.4 |
| 20260501143204 | 53 | 284 | 2.6 | 8.7 | 0.00 | 0.00 | 0.00 | 57 | 1011.4 |
| 20260501142704 | 53 | 246 | 0.9 | 2.6 | 0.00 | 0.00 | 0.00 | 57 | 1011.3 |
| 20260501142204 | 53 | 39 | 0.0 | 2.6 | 0.00 | 0.00 | 0.00 | 57 | 1011.4 |
| 20260501141704 | 53 | 278 | 0.0 | 2.6 | 0.00 | 0.00 | 0.00 | 60 | 1011.5 |